Regional Weather Roundup
Issued by NWS Cleveland, OH

Home | Current Version | Previous Version | Text Only | Print | Product List | Glossary Off
Versions: 1 2 3 4 5 6 7 8 9 10 11 12 13 14 15 16 17 18 19 20 21 22 23 24 25 26 27 28 29 30 31 32 33 34 35 36 37 38 39 40 41 42 43 44 45 46 47 48 49 50

000
ASUS41 KCLE 311400
RWRCLE
OHIO REGIONAL WEATHER ROUNDUP
NATIONAL WEATHER SERVICE WILMINGTON, OH
1000 AM EDT THU JUL 31 2014

NOTE: "FAIR" INDICATES FEW OR NO CLOUDS BELOW 12,000 FEET WITH NO
SIGNIFICANT WEATHER AND/OR OBSTRUCTIONS TO VISIBILITY.

OHZ001>008-015>018-024>027-034-035-043-044-311500-
   NORTHWEST OHIO

CITY           SKY/WX    TMP DP  RH WIND       PRES   REMARKS
DEFIANCE       SUNNY     68  56  65 SW6       30.06F
FINDLAY        SUNNY     69  56  62 W5        30.07R
TOLEDO EXPRESS SUNNY     68  53  58 W5        30.05S
TOLEDO METCALF SUNNY     67  54  63 SW7       30.06S
LIMA           SUNNY     69  62  78 SW5       30.08S
$$

OHZ009>014-019>023-028>033-038-089-311500-
   NORTHEAST OHIO

CITY           SKY/WX    TMP DP  RH WIND       PRES   REMARKS
CLE-HOPKINS    MOSUNNY   66  58  75 SW8       30.08R
CLE-LAKEFRONT  SUNNY     68  57  68 SW12      30.04R
CUY CO. ARPT   MOSUNNY   70  63  78 W12       30.06R
LORAIN-ELYRIA  SUNNY     68  57  68 W7        30.07R
ASHTABULA      PTSUNNY   66  61  84 W8        30.06R
AKRON-CANTON   PTSUNNY   67  60  78 W8        30.08S
WOOSTER        NOT AVBL
MANSFIELD      SUNNY     68  59  73 W8        30.09R
YOUNGSTOWN     PTSUNNY   64  59  83 SW7       30.07S
$$

OHZ042-051>053-060>062-070>072-077>081-311500-
  SOUTHWEST OHIO

CITY           SKY/WX    TMP DP  RH WIND       PRES   REMARKS
CINC-COVINGTON NOT AVBL
CINC-LUNKEN    SUNNY     72  63  73 SW3       30.10S
HAMILTON       SUNNY     71  64  78 CALM      30.11R
DAYTON         NOT AVBL
WRIGHT-PAT AFB NOT AVBL
DAYTON GENERAL SUNNY     70  62  76 W5        30.10R
WILMINGTON     SUNNY     70  62  76 SW7       30.10S
$$

OHZ036-037-039>041-045>050-054>059-063>069-073>076-082>088-311500-
  CENTRAL AND SOUTHEAST OHIO

CITY           SKY/WX    TMP DP  RH WIND       PRES   REMARKS
COLUMBUS       SUNNY     70  60  70 SW3       30.08S
OSU AIRPORT    SUNNY     69  62  78 W6        30.09R
BOLTON FIELD   SUNNY     68  64  88 SW5       30.09R
RICKENBACK AFB NOT AVBL
NEWARK         SUNNY     70  62  76 W6        30.09R
MARION         SUNNY     69  61  75 CALM      30.09R
LANCASTER      SUNNY     69  62  78 SW7       30.10R
ZANESVILLE     SUNNY     68  60  75 SW6       30.10R
NEW PHILLY     MOSUNNY   67  62  84 SW5       30.09S
$$


USA.gov is the U.S. government's official web portal to all federal, state and local government web resources and services.